EST,Max TemperatureF,Mean TemperatureF,Min TemperatureF,Max Dew PointF,MeanDew PointF,Min DewpointF,Max Humidity, Mean Humidity, Min Humidity, Max Sea Level PressureIn, Mean Sea Level PressureIn, Min Sea Level PressureIn, Max VisibilityMiles, Mean VisibilityMiles, Min VisibilityMiles, Max Wind SpeedMPH, Mean Wind SpeedMPH, Max Gust SpeedMPH,PrecipitationIn, CloudCover, Events, WindDirDegrees
2001-1-1,28,21,14,18,11,9,86,70,47,30.15,30.10,30.04,10,9,2,12,4,16,0.00,4,Snow,338
2001-1-2,21,18,14,10,8,5,79,69,58,30.33,30.26,30.14,10,8,1,22,15,32,0.00,6,Snow,316
2001-1-3,32,19,6,9,1,-13,85,55,14,30.29,30.18,30.05,10,10,10,16,2,22,0.00,0,,284
2001-1-4,28,24,21,19,15,7,86,69,54,29.98,29.96,29.94,10,10,7,22,15,37,0.00,5,,293
2001-1-5,35,28,21,23,19,14,80,63,44,29.89,29.68,29.54,10,10,10,32,8,47,0.00,1,,277
2001-1-6,37,32,26,21,16,5,69,55,30,29.83,29.75,29.64,10,10,10,25,16,50,0.00,3,Snow,295
2001-1-7,46,40,33,19,15,10,41,36,33,29.89,29.84,29.81,10,10,10,20,9,32,0.00,1,,273
2001-1-8,39,32,23,32,27,19,100,86,49,29.80,29.74,29.69,10,6,0,17,4,25,0.21,8,Rain-Snow,323
2001-1-9,21,19,17,18,9,3,86,65,49,30.04,29.90,29.79,10,10,7,32,17,53,0.00,3,Snow,314
2001-1-10,46,34,21,16,2,-6,39,27,16,30.26,30.15,30.02,10,10,10,37,16,46,0.00,0,,309
2001-1-11,51,40,30,28,18,12,64,44,22,30.18,30.13,30.06,10,10,10,7,2,,0.00,1,,267
2001-1-12,37,34,32,34,31,21,100,84,52,30.10,30.02,29.99,10,9,1,7,2,,0.04,8,Rain,4
2001-1-13,44,36,28,30,24,14,93,68,38,30.26,30.20,30.15,10,10,5,8,2,,0.00,0,,151
2001-1-14,50,42,35,41,28,14,76,60,41,30.22,30.16,30.08,10,10,10,12,2,22,0.00,7,Rain,159
2001-1-15,53,44,35,37,30,18,93,61,26,30.09,30.04,29.98,10,10,10,18,4,26,0.00,3,,250
2001-1-16,41,36,32,30,26,23,80,71,60,30.12,30.05,29.98,10,10,10,29,15,37,0.00,1,,279
2001-1-17,41,34,26,28,26,23,93,73,57,30.20,30.13,30.09,10,10,7,7,1,,0.00,3,,136
2001-1-18,37,34,32,36,33,32,100,95,93,30.09,30.04,29.97,5,1,0,9,3,,0.12,8,Fog-Rain-Snow,149
2001-1-19,46,42,37,46,43,36,100,95,87,29.91,29.77,29.69,10,3,0,12,3,22,0.64,8,Fog-Rain,156
2001-1-20,46,34,21,46,32,16,100,90,74,29.85,29.76,29.70,10,5,0,21,7,33,0.07,8,Rain-Snow,293
2001-1-21,32,23,14,12,3,-8,79,46,19,30.29,30.13,29.90,10,9,1,34,18,58,0.00,1,Snow,288
2001-1-22,35,27,19,19,11,0,74,53,36,30.36,30.30,30.28,10,10,10,7,1,,0.00,1,,140
2001-1-23,44,32,19,23,9,-11,93,48,10,30.24,30.16,30.04,10,10,10,15,3,28,0.00,0,,295
2001-1-24,37,34,32,27,20,16,69,57,45,30.03,30.00,29.97,10,10,10,24,13,29,0.00,2,,283
2001-1-25,32,26,19,18,11,5,68,57,47,30.23,30.11,29.92,10,9,2,26,15,34,0.00,3,Snow,311
2001-1-26,39,27,15,10,6,0,73,45,19,30.23,30.14,30.00,10,10,10,12,3,17,0.00,2,,166
2001-1-27,37,34,28,32,23,14,87,62,41,30.13,29.97,29.88,10,10,10,43,23,61,0.00,4,,293
2001-1-28,46,36,26,14,-8,-47,59,26,4,30.30,30.23,30.14,10,10,10,18,10,24,0.00,1,,265
2001-1-29,51,42,33,25,9,-8,53,29,13,30.23,30.16,30.01,10,10,10,10,3,21,0.00,2,,154
2001-1-30,53,45,37,43,35,21,100,73,30,29.87,29.69,29.61,10,7,0,14,6,25,0.24,4,Fog-Rain,179
2001-1-31,48,45,42,30,25,18,61,45,30,29.85,29.72,29.62,10,10,10,32,17,50,0.00,2,,266